Orbital Elements at Epoch 2459200.5 (2020-Dec-17.0) TDB
Reference: JPL 17 (heliocentric ecliptic J2000)
Element | Value | Uncertainty (1-sigma) | Units |
e | .1969373694065276 | 5.2265e-08 | |
a | 2.680665367629909 | 1.965e-08 | au |
q | 2.152742181869692 | 1.4545e-07 | au |
i | 14.11679741108736 | 5.7535e-06 | deg |
node | 9.639650867872499 | 2.1251e-05 | deg |
peri | 197.9119370841154 | 2.6641e-05 | deg |
M | 268.2368222360899 | 1.9161e-05 | deg |
tp | 2459609.128145133480 (2022-Jan-29.62814513) | 8.8534e-05 | TDB |
period | 1603.106342137913 4.39 | 1.7627e-05 4.826e-08 | d yr |
n | .2245640170819247 | 2.4692e-09 | deg/d |
Q | 3.208588553390125 | 2.352e-08 | au |
|
| | Orbit Determination Parameters
Additional Information
|